Year,Month,Day,Hour,Minute,Value (Times are PST for temperature in C)
2016,09,22,00,00,9.60
2016,09,22,00,01,9.60
2016,09,22,00,02,9.60
2016,09,22,00,03,9.50
2016,09,22,00,04,9.50
2016,09,22,00,05,9.50
2016,09,22,00,06,9.50
2016,09,22,00,07,9.50
2016,09,22,00,08,9.50
2016,09,22,00,09,9.50
2016,09,22,00,10,9.40
2016,09,22,00,11,9.40
2016,09,22,00,12,9.40
2016,09,22,00,13,9.40
2016,09,22,00,14,9.40
2016,09,22,00,15,9.40
2016,09,22,00,16,9.40
2016,09,22,00,17,9.30
2016,09,22,00,18,9.30
2016,09,22,00,19,9.30
2016,09,22,00,20,9.30
2016,09,22,00,21,9.30
2016,09,22,00,22,9.30
2016,09,22,00,23,9.30
2016,09,22,00,24,9.30
2016,09,22,00,25,9.30
2016,09,22,00,26,9.30
2016,09,22,00,27,9.20
2016,09,22,00,28,9.20
2016,09,22,00,29,9.20
2016,09,22,00,30,9.20
2016,09,22,00,31,9.20
2016,09,22,00,32,9.20
2016,09,22,00,33,9.10
2016,09,22,00,34,9.10
2016,09,22,00,35,9.10
2016,09,22,00,36,9.10
2016,09,22,00,37,9.10
2016,09,22,00,38,9.00
2016,09,22,00,39,9.00
2016,09,22,00,40,9.00
2016,09,22,00,41,9.00
2016,09,22,00,42,8.90
2016,09,22,00,43,8.90
2016,09,22,00,44,8.90
2016,09,22,00,45,8.90
2016,09,22,00,46,8.90
2016,09,22,00,47,8.90
2016,09,22,00,48,8.80
2016,09,22,00,49,8.80
2016,09,22,00,50,8.80
2016,09,22,00,51,8.80
2016,09,22,00,52,8.70
2016,09,22,00,53,8.70
2016,09,22,00,54,8.70
2016,09,22,00,55,8.70
2016,09,22,00,56,8.70
2016,09,22,00,57,8.60
2016,09,22,00,58,8.60
2016,09,22,00,59,8.60
2016,09,22,01,00,8.60
2016,09,22,01,01,8.60
2016,09,22,01,02,8.60
2016,09,22,01,03,8.60
2016,09,22,01,04,8.60
2016,09,22,01,05,8.60
2016,09,22,01,06,8.60
2016,09,22,01,07,8.60
2016,09,22,01,08,8.60
2016,09,22,01,09,8.60
2016,09,22,01,10,8.60
2016,09,22,01,11,8.60
2016,09,22,01,12,8.50
2016,09,22,01,13,8.50
2016,09,22,01,14,8.50
2016,09,22,01,15,8.50
2016,09,22,01,16,8.50
2016,09,22,01,17,8.50
2016,09,22,01,18,8.50
2016,09,22,01,19,8.40
2016,09,22,01,20,8.40
2016,09,22,01,21,8.40
2016,09,22,01,22,8.40
2016,09,22,01,23,8.40
2016,09,22,01,24,8.40
2016,09,22,01,25,8.40
2016,09,22,01,26,8.30
2016,09,22,01,27,8.30
2016,09,22,01,28,8.30
2016,09,22,01,29,8.30
2016,09,22,01,30,8.30
2016,09,22,01,31,8.30
2016,09,22,01,32,8.30
2016,09,22,01,33,8.30
2016,09,22,01,34,8.30
2016,09,22,01,35,8.30
2016,09,22,01,36,8.30
2016,09,22,01,37,8.30
2016,09,22,01,38,8.20
2016,09,22,01,39,8.20
2016,09,22,01,40,8.20
2016,09,22,01,41,8.20
2016,09,22,01,42,8.20
2016,09,22,01,43,8.20
2016,09,22,01,44,8.20
2016,09,22,01,45,8.20
2016,09,22,01,46,8.20
2016,09,22,01,47,8.20
2016,09,22,01,48,8.20
2016,09,22,01,49,8.20
2016,09,22,01,50,8.20
2016,09,22,01,51,8.10
2016,09,22,01,52,8.10
2016,09,22,01,53,8.10
2016,09,22,01,54,8.10
2016,09,22,01,55,8.10
2016,09,22,01,56,8.10
2016,09,22,01,57,8.10
2016,09,22,01,58,8.10
2016,09,22,01,59,8.10
2016,09,22,02,00,8.00
2016,09,22,02,01,8.10
2016,09,22,02,02,8.10
2016,09,22,02,03,8.10
2016,09,22,02,04,8.10
2016,09,22,02,05,8.00
2016,09,22,02,06,8.00
2016,09,22,02,07,8.00
2016,09,22,02,08,8.00
2016,09,22,02,09,8.00
2016,09,22,02,10,8.00
2016,09,22,02,11,8.00
2016,09,22,02,12,7.90
2016,09,22,02,13,7.90
2016,09,22,02,14,7.90
2016,09,22,02,15,7.90
2016,09,22,02,16,7.80
2016,09,22,02,17,7.80
2016,09,22,02,18,7.80
2016,09,22,02,19,7.80
2016,09,22,02,20,7.80
2016,09,22,02,21,7.80
2016,09,22,02,22,7.70
2016,09,22,02,23,7.70
2016,09,22,02,24,7.70
2016,09,22,02,25,7.80
2016,09,22,02,26,7.80
2016,09,22,02,27,7.80
2016,09,22,02,28,7.70
2016,09,22,02,29,7.70
2016,09,22,02,30,7.70
2016,09,22,02,31,7.70
2016,09,22,02,32,7.70
2016,09,22,02,33,7.70
2016,09,22,02,34,7.70
2016,09,22,02,35,7.70
2016,09,22,02,36,7.70
2016,09,22,02,37,7.70
2016,09,22,02,38,7.70
2016,09,22,02,39,7.70
2016,09,22,02,40,7.70
2016,09,22,02,41,7.60
2016,09,22,02,42,7.60
2016,09,22,02,43,7.60
2016,09,22,02,44,7.60
2016,09,22,02,45,7.60
2016,09,22,02,46,7.50
2016,09,22,02,47,7.50
2016,09,22,02,48,7.50
2016,09,22,02,49,7.50
2016,09,22,02,50,7.50
2016,09,22,02,51,7.40
2016,09,22,02,52,7.40
2016,09,22,02,53,7.40
2016,09,22,02,54,7.40
2016,09,22,02,55,7.40
2016,09,22,02,56,7.40
2016,09,22,02,57,7.40
2016,09,22,02,58,7.40
2016,09,22,02,59,7.40
2016,09,22,03,00,7.40
2016,09,22,03,01,7.40
2016,09,22,03,02,7.40
2016,09,22,03,03,7.30
2016,09,22,03,04,7.30
2016,09,22,03,05,7.30
2016,09,22,03,06,7.30
2016,09,22,03,07,7.30
2016,09,22,03,08,7.30
2016,09,22,03,09,7.30
2016,09,22,03,10,7.30
2016,09,22,03,11,7.30
2016,09,22,03,12,7.30
2016,09,22,03,13,7.30
2016,09,22,03,14,7.30
2016,09,22,03,15,7.30
2016,09,22,03,16,7.30
2016,09,22,03,17,7.30
2016,09,22,03,18,7.30
2016,09,22,03,19,7.20
2016,09,22,03,20,7.30
2016,09,22,03,21,7.20
2016,09,22,03,22,7.20
2016,09,22,03,23,7.20
2016,09,22,03,24,7.20
2016,09,22,03,25,7.20
2016,09,22,03,26,7.20
2016,09,22,03,27,7.20
2016,09,22,03,28,7.10
2016,09,22,03,29,7.10
2016,09,22,03,30,7.10
2016,09,22,03,31,7.10
2016,09,22,03,32,7.10
2016,09,22,03,33,7.10
2016,09,22,03,34,7.00
2016,09,22,03,35,7.00
2016,09,22,03,36,7.00
2016,09,22,03,37,7.00
2016,09,22,03,38,6.90
2016,09,22,03,39,6.90
2016,09,22,03,40,6.90
2016,09,22,03,41,6.90
2016,09,22,03,42,6.90
2016,09,22,03,43,7.00
2016,09,22,03,44,7.00
2016,09,22,03,45,7.00
2016,09,22,03,46,7.00
2016,09,22,03,47,7.00
2016,09,22,03,48,7.00
2016,09,22,03,49,7.00
2016,09,22,03,50,7.00
2016,09,22,03,51,7.00
2016,09,22,03,52,7.00
2016,09,22,03,53,7.00
2016,09,22,03,54,7.00
2016,09,22,03,55,7.00
2016,09,22,03,56,7.00
2016,09,22,03,57,7.00
2016,09,22,03,58,7.00
2016,09,22,03,59,6.90
2016,09,22,04,00,6.90
2016,09,22,04,01,6.90
2016,09,22,04,02,6.90
2016,09,22,04,03,6.90
2016,09,22,04,04,6.90
2016,09,22,04,05,6.90
2016,09,22,04,06,6.90
2016,09,22,04,07,6.90
2016,09,22,04,08,6.90
2016,09,22,04,09,6.90
2016,09,22,04,10,6.80
2016,09,22,04,11,6.80
2016,09,22,04,12,6.80
2016,09,22,04,13,6.80
2016,09,22,04,14,6.80
2016,09,22,04,15,6.80
2016,09,22,04,16,6.80
2016,09,22,04,17,6.80
2016,09,22,04,18,6.80
2016,09,22,04,19,6.80
2016,09,22,04,20,6.70
2016,09,22,04,21,6.70
2016,09,22,04,22,6.70
2016,09,22,04,23,6.70
2016,09,22,04,24,6.70
2016,09,22,04,25,6.70
2016,09,22,04,26,6.70
2016,09,22,04,27,6.70
2016,09,22,04,28,6.70
2016,09,22,04,29,6.70
2016,09,22,04,30,6.70
2016,09,22,04,31,6.70
2016,09,22,04,32,6.60
2016,09,22,04,33,6.60
2016,09,22,04,34,6.60
2016,09,22,04,35,6.60
2016,09,22,04,36,6.60
2016,09,22,04,37,6.60
2016,09,22,04,38,6.60
2016,09,22,04,39,6.50
2016,09,22,04,40,6.50
2016,09,22,04,41,6.50
2016,09,22,04,42,6.40
2016,09,22,04,43,6.40
2016,09,22,04,44,6.40
2016,09,22,04,45,6.40
2016,09,22,04,46,6.40
2016,09,22,04,47,6.40
2016,09,22,04,48,6.40
2016,09,22,04,49,6.40
2016,09,22,04,50,6.40
2016,09,22,04,51,6.40
2016,09,22,04,52,6.40
2016,09,22,04,53,6.40
2016,09,22,04,54,6.40
2016,09,22,04,55,6.40
2016,09,22,04,56,6.40
2016,09,22,04,57,6.30
2016,09,22,04,58,6.40
2016,09,22,04,59,6.40
2016,09,22,05,00,6.40
2016,09,22,05,01,6.40
2016,09,22,05,02,6.40
2016,09,22,05,03,6.40
2016,09,22,05,04,6.40
2016,09,22,05,05,6.40
2016,09,22,05,06,6.40
2016,09,22,05,07,6.30
2016,09,22,05,08,6.30
2016,09,22,05,09,6.30
2016,09,22,05,10,6.30
2016,09,22,05,11,6.30
2016,09,22,05,12,6.30
2016,09,22,05,13,6.30
2016,09,22,05,14,6.20
2016,09,22,05,15,6.20
2016,09,22,05,16,6.20
2016,09,22,05,17,6.20
2016,09,22,05,18,6.20
2016,09,22,05,19,6.20
2016,09,22,05,20,6.10
2016,09,22,05,21,6.10
2016,09,22,05,22,6.10
2016,09,22,05,23,6.10
2016,09,22,05,24,6.10
2016,09,22,05,25,6.10
2016,09,22,05,26,6.10
2016,09,22,05,27,6.00
2016,09,22,05,28,6.00
2016,09,22,05,29,6.00
2016,09,22,05,30,6.00
2016,09,22,05,31,6.00
2016,09,22,05,32,6.00
2016,09,22,05,33,6.00
2016,09,22,05,34,6.00
2016,09,22,05,35,6.00
2016,09,22,05,36,6.00
2016,09,22,05,37,6.10
2016,09,22,05,38,6.10
2016,09,22,05,39,6.00
2016,09,22,05,40,6.00
2016,09,22,05,41,6.00
2016,09,22,05,42,6.00
2016,09,22,05,43,6.00
2016,09,22,05,44,5.90
2016,09,22,05,45,5.90
2016,09,22,05,46,5.90
2016,09,22,05,47,5.90
2016,09,22,05,48,5.90
2016,09,22,05,49,5.90
2016,09,22,05,50,5.90
2016,09,22,05,51,5.80
2016,09,22,05,52,5.80
2016,09,22,05,53,5.80
2016,09,22,05,54,5.80
2016,09,22,05,55,5.80
2016,09,22,05,56,5.80
2016,09,22,05,57,5.80
2016,09,22,05,58,5.80
2016,09,22,05,59,5.80
2016,09,22,06,00,5.80
2016,09,22,06,01,5.80
2016,09,22,06,02,5.70
2016,09,22,06,03,5.70
2016,09,22,06,04,5.70
2016,09,22,06,05,5.70
2016,09,22,06,06,5.70
2016,09,22,06,07,5.70
2016,09,22,06,08,5.60
2016,09,22,06,09,5.60
2016,09,22,06,10,5.60
2016,09,22,06,11,5.60
2016,09,22,06,12,5.60
2016,09,22,06,13,5.50
2016,09,22,06,14,5.60
2016,09,22,06,15,5.50
2016,09,22,06,16,5.50
2016,09,22,06,17,5.50
2016,09,22,06,18,5.50
2016,09,22,06,19,5.50
2016,09,22,06,20,5.50
2016,09,22,06,21,5.50
2016,09,22,06,22,5.50
2016,09,22,06,23,5.50
2016,09,22,06,24,5.50
2016,09,22,06,25,5.50
2016,09,22,06,26,5.50
2016,09,22,06,27,5.50
2016,09,22,06,28,5.50
2016,09,22,06,29,5.50
2016,09,22,06,30,5.40
2016,09,22,06,31,5.40
2016,09,22,06,32,5.40
2016,09,22,06,33,5.40
2016,09,22,06,34,5.40
2016,09,22,06,35,5.40
2016,09,22,06,36,5.40
2016,09,22,06,37,5.40
2016,09,22,06,38,5.40
2016,09,22,06,39,5.40
2016,09,22,06,40,5.40
2016,09,22,06,41,5.40
2016,09,22,06,42,5.40
2016,09,22,06,43,5.40
2016,09,22,06,44,5.40
2016,09,22,06,45,5.40
2016,09,22,06,46,5.40
2016,09,22,06,47,5.40
2016,09,22,06,48,5.40
2016,09,22,06,49,5.40
2016,09,22,06,50,5.40
2016,09,22,06,51,5.30
2016,09,22,06,52,5.30
2016,09,22,06,53,5.30
2016,09,22,06,54,5.30
2016,09,22,06,55,5.30
2016,09,22,06,56,5.30
2016,09,22,06,57,5.30
2016,09,22,06,58,5.30
2016,09,22,06,59,5.30
2016,09,22,07,00,5.30
2016,09,22,07,01,5.30
2016,09,22,07,02,5.30
2016,09,22,07,03,5.20
2016,09,22,07,04,5.20
2016,09,22,07,05,5.20
2016,09,22,07,06,5.20
2016,09,22,07,07,5.20
2016,09,22,07,08,5.20
2016,09,22,07,09,5.20
2016,09,22,07,10,5.20
2016,09,22,07,11,5.20
2016,09,22,07,12,5.20
2016,09,22,07,13,5.20
2016,09,22,07,14,5.30
2016,09,22,07,15,5.30
2016,09,22,07,16,5.30
2016,09,22,07,17,5.30
2016,09,22,07,18,5.30
2016,09,22,07,19,5.30
2016,09,22,07,20,5.30
2016,09,22,07,21,5.30
2016,09,22,07,22,5.30
2016,09,22,07,23,5.20
2016,09,22,07,24,5.20
2016,09,22,07,25,5.20
2016,09,22,07,26,5.20
2016,09,22,07,27,5.20
2016,09,22,07,28,5.20
2016,09,22,07,29,5.30
2016,09,22,07,30,5.30
2016,09,22,07,31,5.30
2016,09,22,07,32,5.30
2016,09,22,07,33,5.30
2016,09,22,07,34,5.30
2016,09,22,07,35,5.40
2016,09,22,07,36,5.40
2016,09,22,07,37,5.40
2016,09,22,07,38,5.40
2016,09,22,07,39,5.40
2016,09,22,07,40,5.40
2016,09,22,07,41,5.40
2016,09,22,07,42,5.40
2016,09,22,07,43,5.40
2016,09,22,07,44,5.40
2016,09,22,07,45,5.40
2016,09,22,07,46,5.40
2016,09,22,07,47,5.40
2016,09,22,07,48,5.50
2016,09,22,07,49,5.50
2016,09,22,07,50,5.50
2016,09,22,07,51,5.50
2016,09,22,07,52,5.60
2016,09,22,07,53,5.60
2016,09,22,07,54,5.70
2016,09,22,07,55,5.70
2016,09,22,07,56,5.70
2016,09,22,07,57,5.70
2016,09,22,07,58,5.70
2016,09,22,07,59,5.80
2016,09,22,08,00,5.80
2016,09,22,08,01,5.80
2016,09,22,08,02,5.80
2016,09,22,08,03,5.90
2016,09,22,08,04,5.90
2016,09,22,08,05,5.90
2016,09,22,08,06,6.00
2016,09,22,08,07,6.00
2016,09,22,08,08,6.10
2016,09,22,08,09,6.10
2016,09,22,08,10,6.10
2016,09,22,08,11,6.20
2016,09,22,08,12,6.20
2016,09,22,08,13,6.30
2016,09,22,08,14,6.30
2016,09,22,08,15,6.30
2016,09,22,08,16,6.40
2016,09,22,08,17,6.50
2016,09,22,08,18,6.60
2016,09,22,08,19,6.70
2016,09,22,08,20,6.80
2016,09,22,08,21,6.80
2016,09,22,08,22,6.90
2016,09,22,08,23,7.10
2016,09,22,08,24,7.20
2016,09,22,08,25,7.30
2016,09,22,08,26,7.30
2016,09,22,08,27,7.40
2016,09,22,08,28,7.40
2016,09,22,08,29,7.50
2016,09,22,08,30,7.50
2016,09,22,08,31,7.60
2016,09,22,08,32,7.60
2016,09,22,08,33,7.70
2016,09,22,08,34,7.70
2016,09,22,08,35,7.80
2016,09,22,08,36,7.90
2016,09,22,08,37,8.00
2016,09,22,08,38,8.10
2016,09,22,08,39,8.10
2016,09,22,08,40,8.20
2016,09,22,08,41,8.30
2016,09,22,08,42,8.40
2016,09,22,08,43,8.50
2016,09,22,08,44,8.50
2016,09,22,08,45,8.50
2016,09,22,08,46,8.60
2016,09,22,08,47,8.60
2016,09,22,08,48,8.70
2016,09,22,08,49,8.70
2016,09,22,08,50,8.80
2016,09,22,08,51,8.80
2016,09,22,08,52,8.80
2016,09,22,08,53,8.90
2016,09,22,08,54,8.90
2016,09,22,08,55,9.00
2016,09,22,08,56,9.00
2016,09,22,08,57,9.10
2016,09,22,08,58,9.10
2016,09,22,08,59,9.20
2016,09,22,09,00,9.30
2016,09,22,09,01,9.30
2016,09,22,09,02,9.40
2016,09,22,09,03,9.50
2016,09,22,09,04,9.60
2016,09,22,09,05,9.70
2016,09,22,09,06,9.80
2016,09,22,09,07,9.80
2016,09,22,09,08,9.90
2016,09,22,09,09,10.00
2016,09,22,09,10,10.00
2016,09,22,09,11,10.10
2016,09,22,09,12,10.20
2016,09,22,09,13,10.20
2016,09,22,09,14,10.20
2016,09,22,09,15,10.20
2016,09,22,09,16,10.30
2016,09,22,09,17,10.30
2016,09,22,09,18,10.30
2016,09,22,09,19,10.30
2016,09,22,09,20,10.40
2016,09,22,09,21,10.40
2016,09,22,09,22,10.50
2016,09,22,09,23,10.50
2016,09,22,09,24,10.60
2016,09,22,09,25,10.60
2016,09,22,09,26,10.70
2016,09,22,09,27,10.70
2016,09,22,09,28,10.80
2016,09,22,09,29,10.90
2016,09,22,09,30,10.90
2016,09,22,09,31,11.00
2016,09,22,09,32,11.00
2016,09,22,09,33,11.10
2016,09,22,09,34,11.10
2016,09,22,09,35,11.20
2016,09,22,09,36,11.20
2016,09,22,09,37,11.20
2016,09,22,09,38,11.30
2016,09,22,09,39,11.30
2016,09,22,09,40,11.40
2016,09,22,09,41,11.40
2016,09,22,09,42,11.50
2016,09,22,09,43,11.50
2016,09,22,09,44,11.60
2016,09,22,09,45,11.60
2016,09,22,09,46,11.70
2016,09,22,09,47,11.70
2016,09,22,09,48,11.70
2016,09,22,09,49,11.80
2016,09,22,09,50,11.80
2016,09,22,09,51,11.90
2016,09,22,09,52,11.90
2016,09,22,09,53,11.90
2016,09,22,09,54,12.00
2016,09,22,09,55,12.00
2016,09,22,09,56,12.10
2016,09,22,09,57,12.10
2016,09,22,09,58,12.20
2016,09,22,09,59,12.20
2016,09,22,10,00,12.20
2016,09,22,10,01,12.30
2016,09,22,10,02,12.30
2016,09,22,10,03,12.40
2016,09,22,10,04,12.50
2016,09,22,10,05,12.50
2016,09,22,10,06,12.60
2016,09,22,10,07,12.60
2016,09,22,10,08,12.70
2016,09,22,10,09,12.80
2016,09,22,10,10,12.80
2016,09,22,10,11,12.80
2016,09,22,10,12,12.80
2016,09,22,10,13,12.90
2016,09,22,10,14,12.90
2016,09,22,10,15,12.90
2016,09,22,10,16,13.00
2016,09,22,10,17,13.00
2016,09,22,10,18,13.10
2016,09,22,10,19,13.10
2016,09,22,10,20,13.10
2016,09,22,10,21,13.20
2016,09,22,10,22,13.20
2016,09,22,10,23,13.20
2016,09,22,10,24,13.30
2016,09,22,10,25,13.30
2016,09,22,10,26,13.30
2016,09,22,10,27,13.40
2016,09,22,10,28,13.40
2016,09,22,10,29,13.50
2016,09,22,10,30,13.50
2016,09,22,10,31,13.50
2016,09,22,10,32,13.60
2016,09,22,10,33,13.60
2016,09,22,10,34,13.60
2016,09,22,10,35,13.70
2016,09,22,10,36,13.70
2016,09,22,10,37,13.70
2016,09,22,10,38,13.80
2016,09,22,10,39,13.80
2016,09,22,10,40,13.80
2016,09,22,10,41,13.80
2016,09,22,10,42,13.90
2016,09,22,10,43,13.90
2016,09,22,10,44,14.00
2016,09,22,10,45,14.00
2016,09,22,10,46,14.10
2016,09,22,10,47,14.10
2016,09,22,10,48,14.10
2016,09,22,10,49,14.10
2016,09,22,10,50,14.20
2016,09,22,10,51,14.20
2016,09,22,10,52,14.20
2016,09,22,10,53,14.30
2016,09,22,10,54,14.40
2016,09,22,10,55,14.50
2016,09,22,10,56,14.70
2016,09,22,10,57,14.80
2016,09,22,10,58,14.80
2016,09,22,10,59,14.90
2016,09,22,11,00,15.00
2016,09,22,11,01,15.00
2016,09,22,11,02,15.00
2016,09,22,11,03,15.00
2016,09,22,11,04,15.00
2016,09,22,11,05,15.10
2016,09,22,11,06,15.10
2016,09,22,11,07,15.20
2016,09,22,11,08,15.30
2016,09,22,11,09,15.40
2016,09,22,11,10,15.50
2016,09,22,11,11,15.60
2016,09,22,11,12,15.60
2016,09,22,11,13,15.70
2016,09,22,11,14,15.80
2016,09,22,11,15,15.80
2016,09,22,11,16,15.80
2016,09,22,11,17,15.80
2016,09,22,11,18,15.80
2016,09,22,11,19,15.90
2016,09,22,11,20,16.00
2016,09,22,11,21,16.00
2016,09,22,11,22,16.10
2016,09,22,11,23,16.20
2016,09,22,11,24,16.30
2016,09,22,11,25,16.30
2016,09,22,11,26,16.40
2016,09,22,11,27,16.40
2016,09,22,11,28,16.50
2016,09,22,11,29,16.40
2016,09,22,11,30,16.40
2016,09,22,11,31,16.40
2016,09,22,11,32,16.30
2016,09,22,11,33,16.30
2016,09,22,11,34,16.20
2016,09,22,11,35,16.20
2016,09,22,11,36,16.20
2016,09,22,11,37,16.20
2016,09,22,11,38,16.10
2016,09,22,11,39,16.10
2016,09,22,11,40,16.00
2016,09,22,11,41,15.90
2016,09,22,11,42,15.90
2016,09,22,11,43,15.80
2016,09,22,11,44,15.80
2016,09,22,11,45,15.80
2016,09,22,11,46,15.80
2016,09,22,11,47,15.70
2016,09,22,11,48,15.70
2016,09,22,11,49,15.70
2016,09,22,11,50,15.70
2016,09,22,11,51,15.70
2016,09,22,11,52,15.70
2016,09,22,11,53,15.70
2016,09,22,11,54,15.80
2016,09,22,11,55,15.80
2016,09,22,11,56,15.80
2016,09,22,11,57,15.80
2016,09,22,11,58,15.70
2016,09,22,11,59,15.70
2016,09,22,12,00,15.70
2016,09,22,12,01,15.60
2016,09,22,12,02,15.60
2016,09,22,12,03,15.60
2016,09,22,12,04,15.60
2016,09,22,12,05,15.60
2016,09,22,12,06,15.60
2016,09,22,12,07,15.60
2016,09,22,12,08,15.60
2016,09,22,12,09,15.60
2016,09,22,12,10,15.50
2016,09,22,12,11,15.50
2016,09,22,12,12,15.50
2016,09,22,12,13,15.50
2016,09,22,12,14,15.50
2016,09,22,12,15,15.50
2016,09,22,12,16,15.50
2016,09,22,12,17,15.50
2016,09,22,12,18,15.50
2016,09,22,12,19,15.50
2016,09,22,12,20,15.50
2016,09,22,12,21,15.50
2016,09,22,12,22,15.50
2016,09,22,12,23,15.50
2016,09,22,12,24,15.60
2016,09,22,12,25,15.60
2016,09,22,12,26,15.70
2016,09,22,12,27,15.70
2016,09,22,12,28,15.70
2016,09,22,12,29,15.70
2016,09,22,12,30,15.70
2016,09,22,12,31,15.70
2016,09,22,12,32,15.70
2016,09,22,12,33,15.70
2016,09,22,12,34,15.70
2016,09,22,12,35,15.70
2016,09,22,12,36,15.70
2016,09,22,12,37,15.70
2016,09,22,12,38,15.60
2016,09,22,12,39,15.60
2016,09,22,12,40,15.60
2016,09,22,12,41,15.60
2016,09,22,12,42,15.70
2016,09,22,12,43,15.70
2016,09,22,12,44,15.60
2016,09,22,12,45,15.60
2016,09,22,12,46,15.70
2016,09,22,12,47,15.70
2016,09,22,12,48,15.70
2016,09,22,12,49,15.80
2016,09,22,12,50,15.80
2016,09,22,12,51,15.70
2016,09,22,12,52,15.70
2016,09,22,12,53,15.70
2016,09,22,12,54,15.70
2016,09,22,12,55,15.70
2016,09,22,12,56,15.70
2016,09,22,12,57,15.70
2016,09,22,12,58,15.70
2016,09,22,12,59,15.60
2016,09,22,13,00,15.60
2016,09,22,13,01,15.50
2016,09,22,13,02,15.50
2016,09,22,13,03,15.50
2016,09,22,13,04,15.50
2016,09,22,13,05,15.50
2016,09,22,13,06,15.60
2016,09,22,13,07,15.70
2016,09,22,13,08,15.80
2016,09,22,13,09,15.80
2016,09,22,13,10,15.90
2016,09,22,13,11,15.90
2016,09,22,13,12,16.00
2016,09,22,13,13,16.10
2016,09,22,13,14,16.10
2016,09,22,13,15,16.00
2016,09,22,13,16,15.90
2016,09,22,13,17,15.80
2016,09,22,13,18,15.80
2016,09,22,13,19,15.70
2016,09,22,13,20,15.60
2016,09,22,13,21,15.60
2016,09,22,13,22,15.60
2016,09,22,13,23,15.60
2016,09,22,13,24,15.50
2016,09,22,13,25,15.60
2016,09,22,13,26,15.60
2016,09,22,13,27,15.60
2016,09,22,13,28,15.70
2016,09,22,13,29,15.70
2016,09,22,13,30,15.80
2016,09,22,13,31,15.80
2016,09,22,13,32,15.90
2016,09,22,13,33,15.90
2016,09,22,13,34,15.90
2016,09,22,13,35,16.00
2016,09,22,13,36,16.00
2016,09,22,13,37,16.10
2016,09,22,13,38,16.10
2016,09,22,13,39,16.10
2016,09,22,13,40,16.10
2016,09,22,13,41,16.10
2016,09,22,13,42,16.10
2016,09,22,13,43,16.10
2016,09,22,13,44,16.20
2016,09,22,13,45,16.30
2016,09,22,13,46,16.30
2016,09,22,13,47,16.40
2016,09,22,13,48,16.40
2016,09,22,13,49,16.50
2016,09,22,13,50,16.50
2016,09,22,13,51,16.60
2016,09,22,13,52,16.60
2016,09,22,13,53,16.60
2016,09,22,13,54,16.60
2016,09,22,13,55,16.50
2016,09,22,13,56,16.40
2016,09,22,13,57,16.40
2016,09,22,13,58,16.30
2016,09,22,13,59,16.20
2016,09,22,14,00,16.20
2016,09,22,14,01,16.10
2016,09,22,14,02,16.10
2016,09,22,14,03,16.00
2016,09,22,14,04,15.90
2016,09,22,14,05,15.80
2016,09,22,14,06,15.80
2016,09,22,14,07,15.80
2016,09,22,14,08,15.90
2016,09,22,14,09,15.90
2016,09,22,14,10,16.00
2016,09,22,14,11,16.10
2016,09,22,14,12,16.10
2016,09,22,14,13,16.20
2016,09,22,14,14,16.30
2016,09,22,14,15,16.30
2016,09,22,14,16,16.30
2016,09,22,14,17,16.20
2016,09,22,14,18,16.20
2016,09,22,14,19,16.20
2016,09,22,14,20,16.20
2016,09,22,14,21,16.20
2016,09,22,14,22,16.10
2016,09,22,14,23,16.10
2016,09,22,14,24,16.10
2016,09,22,14,25,16.00
2016,09,22,14,26,16.00
2016,09,22,14,27,16.00
2016,09,22,14,28,16.00
2016,09,22,14,29,16.00
2016,09,22,14,30,16.00
2016,09,22,14,31,16.10
2016,09,22,14,32,16.10
2016,09,22,14,33,16.20
2016,09,22,14,34,16.20
2016,09,22,14,35,16.30
2016,09,22,14,36,16.30
2016,09,22,14,37,16.40
2016,09,22,14,38,16.50
2016,09,22,14,39,16.50
2016,09,22,14,40,16.60
2016,09,22,14,41,16.60
2016,09,22,14,42,16.60
2016,09,22,14,43,16.70
2016,09,22,14,44,16.70
2016,09,22,14,45,16.70
2016,09,22,14,46,16.60
2016,09,22,14,47,16.60
2016,09,22,14,48,16.60
2016,09,22,14,49,16.60
2016,09,22,14,50,16.60
2016,09,22,14,51,16.60
2016,09,22,14,52,16.70
2016,09,22,14,53,16.70
2016,09,22,14,54,16.70
2016,09,22,14,55,16.70
2016,09,22,14,56,16.80
2016,09,22,14,57,16.80
2016,09,22,14,58,16.80
2016,09,22,14,59,16.80
2016,09,22,15,00,16.80
2016,09,22,15,01,16.80
2016,09,22,15,02,16.80
2016,09,22,15,03,16.80
2016,09,22,15,04,16.80
2016,09,22,15,05,16.80
2016,09,22,15,06,16.90
2016,09,22,15,07,16.90
2016,09,22,15,08,16.90
2016,09,22,15,09,16.90
2016,09,22,15,10,16.90
2016,09,22,15,11,16.90
2016,09,22,15,12,16.90
2016,09,22,15,13,16.90
2016,09,22,15,14,17.00
2016,09,22,15,15,16.90
2016,09,22,15,16,16.90
2016,09,22,15,17,16.90
2016,09,22,15,18,17.00
2016,09,22,15,19,17.00
2016,09,22,15,20,17.00
2016,09,22,15,21,17.00
2016,09,22,15,22,17.10
2016,09,22,15,23,17.10
2016,09,22,15,24,17.00
2016,09,22,15,25,16.90
2016,09,22,15,26,16.90
2016,09,22,15,27,16.80
2016,09,22,15,28,16.80
2016,09,22,15,29,16.80
2016,09,22,15,30,16.80
2016,09,22,15,31,16.80
2016,09,22,15,32,16.90
2016,09,22,15,33,16.90
2016,09,22,15,34,16.90
2016,09,22,15,35,16.90
2016,09,22,15,36,16.90
2016,09,22,15,37,16.80
2016,09,22,15,38,16.80
2016,09,22,15,39,16.80
2016,09,22,15,40,16.80
2016,09,22,15,41,16.80
2016,09,22,15,42,16.80
2016,09,22,15,43,16.80
2016,09,22,15,44,16.90
2016,09,22,15,45,16.90
2016,09,22,15,46,16.90
2016,09,22,15,47,17.00
2016,09,22,15,48,17.00
2016,09,22,15,49,17.00
2016,09,22,15,50,17.10
2016,09,22,15,51,17.10
2016,09,22,15,52,17.20
2016,09,22,15,53,17.30
2016,09,22,15,54,17.30
2016,09,22,15,55,17.30
2016,09,22,15,56,17.30
2016,09,22,15,57,17.30
2016,09,22,15,58,17.30
2016,09,22,15,59,17.30
2016,09,22,16,00,17.20
2016,09,22,16,01,17.20
2016,09,22,16,02,17.20
2016,09,22,16,03,17.10
2016,09,22,16,04,17.00
2016,09,22,16,05,16.90
2016,09,22,16,06,16.90
2016,09,22,16,07,16.80
2016,09,22,16,08,16.80
2016,09,22,16,09,16.80
2016,09,22,16,10,16.80
2016,09,22,16,11,16.80
2016,09,22,16,12,16.80
2016,09,22,16,13,16.80
2016,09,22,16,14,16.80
2016,09,22,16,15,16.80
2016,09,22,16,16,16.80
2016,09,22,16,17,16.90
2016,09,22,16,18,16.90
2016,09,22,16,19,16.90
2016,09,22,16,20,16.90
2016,09,22,16,21,16.90
2016,09,22,16,22,17.00
2016,09,22,16,23,17.00
2016,09,22,16,24,17.00
2016,09,22,16,25,17.00
2016,09,22,16,26,17.10
2016,09,22,16,27,17.10
2016,09,22,16,28,17.10
2016,09,22,16,29,17.20
2016,09,22,16,30,17.20
2016,09,22,16,31,17.30
2016,09,22,16,32,17.30
2016,09,22,16,33,17.30
2016,09,22,16,34,17.40
2016,09,22,16,35,17.40
2016,09,22,16,36,17.40
2016,09,22,16,37,17.40
2016,09,22,16,38,17.40
2016,09,22,16,39,17.40
2016,09,22,16,40,17.40
2016,09,22,16,41,17.40
2016,09,22,16,42,17.30
2016,09,22,16,43,17.30
2016,09,22,16,44,17.20
2016,09,22,16,45,17.10
2016,09,22,16,46,17.10
2016,09,22,16,47,17.10
2016,09,22,16,48,17.00
2016,09,22,16,49,17.00
2016,09,22,16,50,17.00
2016,09,22,16,51,17.00
2016,09,22,16,52,17.00
2016,09,22,16,53,16.90
2016,09,22,16,54,16.90
2016,09,22,16,55,16.90
2016,09,22,16,56,16.90
2016,09,22,16,57,16.90
2016,09,22,16,58,16.80
2016,09,22,16,59,16.80
2016,09,22,17,00,16.80
2016,09,22,17,01,16.80
2016,09,22,17,02,16.70
2016,09,22,17,03,16.70
2016,09,22,17,04,16.70
2016,09,22,17,05,16.60
2016,09,22,17,06,16.60
2016,09,22,17,07,16.60
2016,09,22,17,08,16.50
2016,09,22,17,09,16.50
2016,09,22,17,10,16.50
2016,09,22,17,11,16.50
2016,09,22,17,12,16.50
2016,09,22,17,13,16.50
2016,09,22,17,14,16.50
2016,09,22,17,15,16.50
2016,09,22,17,16,16.60
2016,09,22,17,17,16.60
2016,09,22,17,18,16.60
2016,09,22,17,19,16.60
2016,09,22,17,20,16.60
2016,09,22,17,21,16.70
2016,09,22,17,22,16.70
2016,09,22,17,23,16.70
2016,09,22,17,24,16.80
2016,09,22,17,25,16.80
2016,09,22,17,26,16.80
2016,09,22,17,27,16.80
2016,09,22,17,28,16.90
2016,09,22,17,29,16.90
2016,09,22,17,30,16.90
2016,09,22,17,31,16.90
2016,09,22,17,32,16.90
2016,09,22,17,33,16.90
2016,09,22,17,34,17.00
2016,09,22,17,35,17.00
2016,09,22,17,36,17.00
2016,09,22,17,37,17.10
2016,09,22,17,38,17.10
2016,09,22,17,39,17.10
2016,09,22,17,40,17.10
2016,09,22,17,41,17.10
2016,09,22,17,42,17.10
2016,09,22,17,43,17.10